小惑星2013 PJ44

2013 PJ44

English version
Home page
Updated on September 14, 2013

---------------------------------------------------------------------

・ プロフィール

発見日 2013年8月12日
発見光度 21.5等
発見者 Pan-STARRS 1 telescope (Haleakala)

・ 軌道要素

The following orbital elements are taken from MPEC 2013-R95:

Epoch 2013 Nov. 4.0 TT = JDT 2456600.5                  MPC
M  12.13469              (2000.0)            P               Q
n   0.02338694     Peri.  312.45057     +0.02314178     +0.96787781
a  12.1102691      Node   316.86777     -0.77562629     -0.14061766
e   0.6763212      Incl.   21.48042     -0.63076803     +0.20842079
P  42.1            H   14.5           G   0.15           U   4
From 30 observations 2013 Aug. 12-Sept. 13, mean residual 0".24.

・ 光度変化

        H = 14.5  G = 0.15

---------------------------------------------------------------------

軌道要素はMPCのEphemerides and Orbital Elementsに掲載されたものです。
光度グラフはComet for Windowsで作成したものです。

---------------------------------------------------------------------

Copyright(C) Seiichi Yoshida (comet@aerith.net). All rights reserved.